Weather History for Benton Harbor, MI

Change the Weather History Date:

Sunday, November 6, 2011

  Actual Average Record
Temperature  
Mean Temperature 54 °F -  
Max Temperature 63 °F 50 °F 77 °F (1975)
Min Temperature 44 °F 33 °F 16 °F (1951)
Degree Days  
Heating Degree Days 12    
Growing Degree Days 4 (Base 50)    
Moisture  
Dew Point 40 °F    
Average Humidity 62    
Maximum Humidity 74    
Minimum Humidity 50    
Precipitation  
Precipitation 0.00 in - - ()
Sea Level Pressure  
Sea Level Pressure 30.09 in    
Wind  
Wind Speed 11 mph (South)    
Max Wind Speed 21 mph    
Max Gust Speed 34 mph    
Visibility 10 miles    
Events      
Averages and records for this station are not official NWS values.
T = Trace of Precipitation, MM = Missing Value Source: NWS Daily Summary

Daily Weather History Graph

Daily Weather History Graph

Search for Another Location

Airport:

Trip Planner

Search our weather history database for the weather conditions in past years. The results will help you decide how hot, cold, wet, or windy it might be!

Date:

Astronomy

Nov. 06, 2011 Rise Set
Actual Time 7:24 AM EST 5:33 PM EST
Civil Twilight 6:55 AM EST 6:03 PM EST
Nautical Twilight 6:21 AM EST 6:36 PM EST
Astronomical Twilight 5:48 AM EST 7:09 PM EST
Moon 3:20 PM EST (11/6) 3:26 AM EST (11/6)
Length of Visible Light 11h 08m
Length of Day
10h 09m
Waxing Gibbous, 85% of the Moon is Illuminated
Nov 6
Waxing Gibbous
Nov 10
Full
Nov 18
Last Quarter
Nov 25
New
Dec 2
First Quarter

Hourly Weather History & Observations

Time (EST) Temp. Windchill Dew Point Humidity Pressure Visibility Wind Dir Wind Speed Gust Speed Precip Events Conditions
12:53 AM 45.0 °F 40.1 °F 30.9 °F 58% 30.11 in 10.0 mi SSE 9.2 mph - N/A   Clear
1:53 AM 45.0 °F 39.7 °F 30.9 °F 58% 30.11 in 10.0 mi SSE 10.4 mph - N/A   Clear
1:53 AM 45.0 °F 40.1 °F 30.9 °F 58% 30.11 in 10.0 mi SSE 9.2 mph - N/A   Clear
2:53 AM 44.1 °F 39.5 °F 30.9 °F 60% 30.12 in 10.0 mi SSE 8.1 mph - N/A   Clear
3:53 AM 44.1 °F 39.5 °F 33.1 °F 65% 30.12 in 10.0 mi SSE 8.1 mph - N/A   Clear
4:53 AM 44.1 °F 39.5 °F 35.1 °F 71% 30.12 in 10.0 mi SE 8.1 mph - N/A   Clear
5:53 AM 45.0 °F 39.7 °F 36.0 °F 71% 30.12 in 10.0 mi SSE 10.4 mph - N/A   Clear
6:53 AM 45.0 °F 40.1 °F 36.0 °F 71% 30.12 in 10.0 mi SSE 9.2 mph - N/A   Clear
7:53 AM 45.0 °F 39.7 °F 37.0 °F 74% 30.12 in 9.0 mi SSE 10.4 mph - N/A   Clear
8:53 AM 48.0 °F - 39.9 °F 74% 30.11 in 8.0 mi SSE 11.5 mph - N/A   Clear
9:53 AM 55.0 °F - 43.0 °F 64% 30.10 in 9.0 mi South 16.1 mph 23.0 mph N/A   Clear
10:53 AM 59.0 °F - 44.1 °F 58% 30.09 in 9.0 mi South 18.4 mph 29.9 mph N/A   Clear
11:53 AM 61.0 °F - 45.0 °F 56% 30.07 in 10.0 mi South 20.7 mph 27.6 mph N/A   Clear
12:53 PM 62.1 °F - 45.0 °F 53% 30.06 in 10.0 mi South 20.7 mph 34.5 mph N/A   Clear
1:53 PM 63.0 °F - 44.1 °F 50% 30.04 in 10.0 mi South 18.4 mph 25.3 mph N/A   Clear
2:53 PM 62.1 °F - 44.1 °F 52% 30.04 in 10.0 mi South 16.1 mph 21.9 mph N/A   Overcast
3:53 PM 60.1 °F - 44.1 °F 55% 30.06 in 10.0 mi SSW 16.1 mph 33.4 mph N/A   Overcast
4:53 PM 57.9 °F - 46.0 °F 65% 30.07 in 10.0 mi SSW 12.7 mph 23.0 mph N/A   Overcast
5:53 PM 57.9 °F - 46.0 °F 65% 30.07 in 10.0 mi South 13.8 mph 23.0 mph N/A   Overcast
6:53 PM 57.9 °F - 45.0 °F 62% 30.08 in 10.0 mi SSW 11.5 mph 20.7 mph N/A   Overcast
7:53 PM 57.9 °F - 44.1 °F 60% 30.09 in 10.0 mi SSW 10.4 mph - N/A   Overcast
8:53 PM 57.9 °F - 43.0 °F 58% 30.10 in 10.0 mi SSW 11.5 mph 19.6 mph N/A   Overcast
10:53 PM 57.9 °F - 43.0 °F 58% 30.12 in 10.0 mi SSW 10.4 mph - N/A   Overcast